This demonstration page uses our WeatherBlox Daily Observations layout. Learn more.

Left ArrowRight Arrow

34.74481, -87.66753

Hourly Observations for December 28, 2017

Temp ( °F °C ) Dew Point ( °F °C ) Humidity (%) Winds ( mph kmh ) Pressure ( in mb ) Visibility ( mi km ) Precip ( " mm )
12:53 am 00:53 Clear 23 -5 6 -14.4 48 48 NE 8 13 30.50 1033 10 16 0.00 0.00
1:53 am 01:53 Clear 22 -5.6 7 -13.9 52 52 NE 9 15 30.50 1033 10 16 0.00 0.00
2:53 am 02:53 Clear 22 -5.6 8 -13.3 55 55 NNE 7 11 30.51 1033 10 16 0.00 0.00
3:53 am 03:53 Clear 21 -6.1 7 -13.9 54 54 NE 9 15 30.51 1033 10 16 0.00 0.00
4:53 am 04:53 Clear 20 -6.7 8 -13.3 60 60 NE 6 9 30.51 1033 10 16 0.00 0.00
5:53 am 05:53 Clear 20 -6.7 7 -13.9 57 57 NE 8 13 30.51 1033 10 16 0.00 0.00
6:53 am 06:53 Clear 20 -6.7 7 -13.9 57 57 NE 8 13 30.51 1033 10 16 0.00 0.00
7:53 am 07:53 Sunny 21 -6.1 8 -13.3 57 57 NE 9 15 30.50 1033 10 16 0.00 0.00
8:53 am 08:53 Sunny 23 -5 9 -12.8 55 55 ENE 8 13 30.50 1033 10 16 0.00 0.00
9:53 am 09:53 Sunny 27 -2.8 11 -11.7 51 51 ENE 6 9 30.52 1033 10 16 0.00 0.00
10:53 am 10:53 Sunny 28 -2.2 12 -11.1 51 51 VRB 3 6 30.49 1033 10 16 0.00 0.00
11:53 am 11:53 Sunny 33 0.6 15 -9.4 47 47 VRB 5 7 30.45 1031 10 16 0.00 0.00
12:53 pm 12:53 Sunny 36 2.2 16 -8.9 44 44 Calm 30.42 1030 10 16 0.00 0.00
1:53 pm 13:53 Sunny 38 3.3 17 -8.3 43 43 Calm 30.40 1029 10 16 0.00 0.00
2:53 pm 14:53 Sunny 38 3.3 18 -7.8 44 44 Calm 30.40 1029 10 16 0.00 0.00
3:53 pm 15:53 Sunny 38 3.3 18 -7.8 44 44 Calm 30.40 1030 10 16 0.00 0.00
4:53 pm 16:53 Clear 36 2.2 20 -6.7 52 52 W 5 7 30.41 1030 10 16 0.00 0.00
5:53 pm 17:53 Clear 32 0 20 -6.7 61 61 NW 7 11 30.42 1030 10 16 0.00 0.00
6:53 pm 18:53 Clear 32 0 17 -8.3 54 54 NW 8 13 30.42 1030 10 16 0.00 0.00
7:53 pm 19:53 Clear 32 0 16 -8.9 52 52 NNW 6 9 30.44 1031 10 16 0.00 0.00
8:53 pm 20:53 Clear 31 -0.6 16 -8.9 54 54 NNW 5 7 30.44 1031 10 16 0.00 0.00
9:53 pm 21:53 Clear 30 -1.1 16 -8.9 56 56 NNW 3 6 30.45 1031 10 16 0.00 0.00
10:53 pm 22:53 Clear 29 -1.7 15 -9.4 56 56 Calm 30.42 1030 10 16 0.00 0.00
11:53 pm 23:53 Clear 29 -1.7 16 -8.9 58 58 N 3 6 30.43 1031 10 16 0.00 0.00

Powered by AerisWeather